Flag for Canada Weather past 2 weeks in Calgary, Alberta, Canada

Now
59 °F

Passing clouds.


Feels Like: 57 °F
Forecast: 58 / 81 °F
Wind: 9 mph from North

Location: Calgary International

Current Time: Aug 1, 2015 at 5:59:08 AM

Latest Report: Aug 1, 2015 at 5:00 AM


Visibility: 15 mi

Pressure: 29.94 "Hg (26.39 "Hg at 1063m altitude)

Humidity: 68%

Dew point: 48 °F

Location of CalgaryLocation

Historic Weather in Calgary — Graph

°F

Calgary temperature yesterday

Maximum temperature yesterday: 88 °F (at 4:00 PM)
Minimum temperature yesterday: 50 °F (at 7:00 AM)
Average temperature yesterday: 72 °F

Past Weeks' High & Low Weather Summary

 TemperatureHumidityPressure
High88 °F (Jul 31, 4:00 PM)94% (Jul 23, 5:00 AM)30.26 "Hg (Jul 23, 5:00 AM)
Low45 °F (Jul 27, 5:00 AM)17% (Jul 31, 9:00 PM)29.63 "Hg (Jul 21, 7:00 PM)
Average64 °F55%29.95 "Hg
* Reported Jul 17 4:00 AM — Aug 1 4:00 AM, Calgary, Weather by CustomWeather, © 2015

Note: Actual official high and low records may vary slightly from our data, if they occured in-between our weather recording intervals... More about our weather records

Advertising

Calgary weather history for previous 24 hours

 ConditionsComfort  
Time TempWeatherWind HumidityBarometerVisibility
4:00 AM
Sat, Aug 1
61 °FPassing clouds.9 mph68%29.95 "Hg15 mi
3:00 AM63 °FPassing clouds.12 mph56%29.95 "Hg15 mi
2:00 AM59 °FPassing clouds.6 mph72%29.96 "Hg15 mi
1:00 AM63 °FPassing clouds.3 mph52%29.96 "Hg15 mi
12:00 AM66 °FPassing clouds.2 mph46%29.96 "Hg15 mi
11:00 PM
Fri, Jul 31
73 °FPassing clouds.7 mph25%29.94 "Hg15 mi
10:00 PM79 °FPassing clouds.3 mph18%29.95 "Hg20 mi
9:00 PM82 °FPassing clouds.8 mph17%29.93 "Hg30 mi
8:00 PM84 °FPassing clouds.10 mph25%29.93 "Hg30 mi
7:00 PM86 °FPassing clouds.12 mph22%29.96 "Hg30 mi
6:00 PM88 °FPassing clouds.14 mph21%29.96 "Hg30 mi
5:00 PM88 °FPassing clouds.12 mph21%29.96 "Hg30 mi
4:00 PM88 °FPassing clouds.14 mph22%29.99 "Hg30 mi
3:00 PM86 °FPassing clouds.13 mph20%30.01 "Hg30 mi
2:00 PM84 °FPassing clouds.9 mph31%30.04 "Hg30 mi
1:00 PM82 °FPassing clouds.10 mph23%30.07 "Hg40 mi
12:00 PM79 °FPassing clouds.10 mph30%30.09 "Hg40 mi
11:00 AM73 °FPassing clouds.7 mph41%30.11 "Hg40 mi
10:00 AM68 °FPassing clouds.7 mph46%30.14 "Hg40 mi
9:00 AM63 °FPassing clouds.6 mph52%30.16 "Hg40 mi
8:00 AM57 °FPassing clouds.3 mph59%30.17 "Hg30 mi
7:00 AM50 °FPassing clouds.3 mph76%30.19 "Hg30 mi
6:00 AM52 °FPassing clouds.2 mph67%30.19 "Hg30 mi
5:00 AM57 °FClear.2 mph55%30.17 "Hg15 mi
Weather by CustomWeather, © 2015

See weather overviewHow to use our weather pages